Location: Bothwell
(42.3833°S, 147.0000°E)
Time: 22:29:48
(UTC+11:00)

CUTE-I - Pass Details

Date: 28 September 2022
Orbit: 810 x 823 km, 98.7° (Epoch: 30 November)

Event Time Altitude Azimuth Distance (km) Brightness Sun altitude
Rises 03:48:07 0° 75° (ENE) 3,344 ? -22.8°
Reaches altitude 10° 03:52:18 10° 107° (ESE) 2,426 ? -22.1°
Maximum altitude 03:53:53 11° 124° (SE) 2,337 ? -21.9°
Drops below altitude 10° 03:55:28 10° 142° (SE) 2,436 ? -21.6°
Sets 03:59:41 0° 173° (S) 3,382 ? -20.9°
